AirNav   TITAN Aviation Fuels
 
 400 users online  

99MO Parkland Health Center Heliport
Bonne Terre, Missouri, USA

GOING TO BONNE TERRE?


FAA INFORMATION EFFECTIVE 07 OCTOBER 2021

Location

FAA Identifier: 99MO
Lat/Long: 37-54-43.1100N 090-31-55.6700W
37-54.718500N 090-31.927833W
37.9119750,-90.5321306
(estimated)
Elevation: 850 ft. / 259 m (estimated)
Variation: 01E (1995)
From city: 1 mile S of BONNE TERRE, MO
Time zone: UTC -5 (UTC -6 during Standard Time)
Zip code: 63628

Heliport Operations

Heliport use: Private use, FOR MEDICAL USE ONLY.
Activation date: 09/1996
Control tower: no
ARTCC: KANSAS CITY CENTER
FSS: COLUMBIA FLIGHT SERVICE STATION
Attendance: CONTINUOUS
Wind indicator: yes
Segmented circle: no
Lights: FOR PERIMETER LIGHTS CALL 573-760-8163.

Heliport Communications

WX AWOS-3PT at FAM (10 nm SE): 119.275 (573-756-6042)

Nearby radio navigation aids

VOR radial/distance  VOR name  Freq  Var
FAMr314/20.1FARMINGTON VORTAC115.7001E

Heliport Services

Runway Information

Helipad H1

Dimensions: 40 x 40 ft. / 12 x 12 m
Surface: asphalt
Latitude: 37-54.718500N
Longitude: 090-31.927833W
Elevation: 850.0 ft.
Traffic pattern: leftleft

Heliport Ownership and Management from official FAA records

Ownership: Privately-owned
Owner: PARKLAND HEALTH CENTER, BONNE TERRE
7245 RAIDER ROAD
BONNE TERRE, MO 63628
Phone (573) 756-6453
Manager: LYNN RASNICK, ADMIN
7245 RAIDER ROAD
BONNE TERRE, MO 63628
Phone (573) 756-6453

Additional Remarks

A52-H1 40 FT POWER LINE 75 FT E & 75 FT BLDG 200 FT N OF HELIPAD.
OWNER DESIRES ARPT NOT BE CHARTED.
FOR CD CTC KANSAS CITY ARTCC AT 913-254-8508.

Instrument Procedures

There are no published instrument procedures at 99MO.

Some nearby airports with instrument procedures:

8WC - Washington County Airport (9 nm W)
KFAM - Farmington Regional Airport (10 nm SE)
KFES - Festus Memorial Airport (18 nm N)
H88 - A Paul Vance Fredericktown Regional Airport (22 nm SE)
KPCD - Perryville Regional Airport (32 nm E)
 
Loc | Ops | Rwys | IFR | FBO | Links
Com | Nav | Svcs | Stats | Notes
Area around 99MO (Parkland Health Center Heliport)
 
Road maps at: MapQuest Bing Google
 
Aerial photo
No photo
 
Sectional chart

 
Airport distance calculator
Flying to Parkland Health Center Heliport? Find the distance to fly.

From to 99MO

Sunrise and sunset
Times for 25-Oct-2021
 Local
(UTC-5)
 Zulu
(UTC)
Morning civil twilight06:5511:55
Sunrise07:2212:22
Sunset18:1123:11
Evening civil twilight18:3823:38

Current date and time
Zulu (UTC)  25-Oct-2021 09:57:40
Local (UTC-5)  25-Oct-2021 04:57:40
 
METAR
KFAM 
10nm SE 
250856Z AUTO 28010G15KT 10SM OVC019 13/11 A2979 RMK AO2 SLP090 T01330111 53011
TAF
KCPS 
43nm NE 
250635Z 2507/2606 26010G19KT P6SM SCT025 BKN060 FM250900 27015G30KT P6SM BKN025 FM251100 29016G29KT P6SM BKN015 FM252100 33012G19KT P6SM BKN020 FM260100 34008KT P6SM SCT030
KSUS 
45nm N 
250520Z 2506/2606 27015G29KT P6SM SCT025 BKN035 TEMPO 2506/2508 BKN025 FM250800 27015G30KT P6SM BKN025 FM251000 29016G29KT P6SM BKN015 FM252100 33012G19KT P6SM BKN020 FM260100 34008KT P6SM SCT030
KBLV 
50nm NE 
250800Z 2508/2614 26012KT 9999 OVC020 510105 QNH2965INS BECMG 2512/2513 29020G30KT 9999 OVC020 510053 QNH2975INS BECMG 2516/2517 31020G30KT 9999 OVC030 510103 QNH2980INS BECMG 2523/2524 33009KT 9999 OVC030 QNH2999INS BECMG 2605/2606 36009KT 9999 SCT030 QNH3000INS TX16/2509Z TN09/2608Z
NOTAMs
Click for the latest NOTAMs
NOTAMs are issued by the DoD/FAA and will open in a separate window not controlled by AirNav.

 

 
 

Would you like to see your business listed on this page?

 If your business provides an interesting product or service to pilots, flight crews, aircraft, or users of the Parkland Health Center Heliport, you should consider listing it here.  To start the listing process, click on the button below
 
Add a business
 

Other Pages about Parkland Health Center Heliport

Update a link
 
Copyright © AirNav, LLC. All rights reserved. Privacy Policy  Contact